Temperature
18 18 18 18 18 18 18 18 18 18 18 18 19 19 19 18 18 18 18 18 18 18 18 18 18 18 17 17 17 17 17 17 17 17 16 16 16 16 16 16 16 16 16
18 18 18 18 18 18 18 18 18 18 18 18 18 18 18 18 18 18 18 18 18 18 18 18 18 18 18 17 17 17 17 17 17 17 17 16 16 16 16 16 16 16 16
18 18 18 18 18 18 18 18 18 18 18 18 18 18 18 18 18 18 18 18 18 18 18 18 18 18 18 18 17 17 17 17 17 17 17 16 16 16 16 16 16 16 16
18 18 18 18 18 18 18 18 18 18 18 18 18 18 18 18 18 18 18 18 18 18 18 18 18 18 18 18 17 17 17 17 17 17 17 16 16 16 16 16 16 16 16
18 18 18 18 18 18 18 18 18 18 18 18 18 18 18 18 18 18 18 18 18 18 18 18 18 18 17 17 17 17 17 17 17 17 17 17 17 16 16 16 16 16 16
18 18 18 18 18 18 18 18 18 18 18 18 18 18 19 18 18 18 18 18 18 18 18 18 18 18 17 17 17 17 17 17 17 17 17 17 17 16 16 16 16 16 16
18 19 19 18 18 18 18 18 18 18 18 18 18 18 19 19 19 18 18 18 18 18 18 18 18 17 17 17 17 17 17 17 17 17 17 16 16 16 16 16 16 16 16
19 18 18 18 18 18 18 18 18 18 18 18 18 18 18 19 19 19 19 18 18 18 18 18 17 17 17 17 17 17 17 17 17 16 16 16 16 16 16 16 16 16 16
19 19 18 18 18 18 18 18 18 18 18 18 18 18 18 18 18 18 18 18 18 18 18 18 17 17 17 17 17 17 17 17 16 16 16 16 16 16 16 16 16 16 15
19 19 18 18 18 18 18 18 18 18 18 18 18 18 18 18 18 18 18 18 18 18 17 17 17 17 17 17 16 16 16 16 16 16 16 16 16 16 15 15 15 15 15
18 18 18 18 18 18 18 18 18 18 18 18 18 18 18 18 18 17 17 17 17 17 17 17 17 17 16 16 16 16 16 16 16 16 16 16 15 15 15 15 15 15 15
18 18 18 18 18 18 18 18 18 18 18 18 18 18 18 18 17 17 17 17 17 17 17 16 16 16 16 16 16 16 16 16 16 16 15 15 15 15 15 15 15 15 14
18 18 18 18 18 18 18 18 18 17 17 17 17 17 17 17 17 17 17 16 16 16 16 16 16 16 16 16 16 16 16 15 15 15 15 15 15 15 15 15 14 14 14
18 18 18 18 18 17 17 17 17 17 17 17 17 17 17 17 17 17 17 16 16 16 16 15 15 15 15 15 15 15 15 15 15 15 15 15 15 14 14 14 14 14 14
18 18 18 17 17 17 17 17 17 17 17 17 17 17 16 16 16 16 16 16 16 15 15 15 15 15 15 15 15 15 15 15 14 14 14 14 14 14 14 14 14 14 14
18 17 17 17 17 17 17 17 17 16 16 16 16 16 16 16 16 16 16 16 16 16 15 15 15 15 15 14 14 14 14 14 14 14 14 14 13 13 13 13 13 13 13
17 17 17 17 17 16 16 16 16 16 16 16 16 16 16 16 16 16 16 16 16 16 15 14 14 14 14 14 14 14 13 13 13 13 13 13 13 13 13 13 13 13 12
17 17 16 16 16 16 16 16 16 16 16 15 15 15 15 15 15 15 15 15 15 15 15 14 14 14 14 14 14 13 13 13 13 13 13 13 12 12 12 12 12 12 12
17 16 16 16 16 16 16 15 15 15 15 15 15 15 15 15 15 15 15 15 15 15 15 14 14 14 13 13 13 13 13 12 12 12 12 12 12 12 12 12 11 11 11
16 16 16 16 16 15 15 15 15 15 15 15 15 15 15 15 15 15 14 14 14 14 14 14 13 13 13 13 13 13 12 12 12 12 12 12 11 11 11 11 11 11 10
16 16 16 15 15 15 15 15 15 15 15 14 14 14 14 14 14 14 14 14 14 14 14 13 13 13 13 12 12 12 12 12 12 11 11 11 11 11 10 10 10 10 10
16 15 15 15 15 15 15 15 15 14 14 14 14 14 14 14 14 14 14 13 13 13 13 13 13 12 12 12 12 12 12 12 11 11 11 11 11 10 10 10 10 10 9
15 15 15 15 15 15 15 15 14 14 14 14 13 13 13 13 13 13 13 13 13 13 13 13 12 12 12 12 12 12 12 11 11 11 11 10 10 10 10 10 9 9 9
15 15 14 14 15 14 14 14 14 14 14 13 13 13 13 13 13 13 13 12 12 12 12 12 12 12 11 11 11 11 11 11 11 11 11 10 10 10 10 10 9 9 9
14 14 14 14 14 14 14 14 13 13 13 13 13 13 13 12 12 12 12 12 12 11 11 11 11 11 11 11 11 11 11 11 10 10 10 10 10 9 9 9 9 9 9
14 14 14 14 14 14 13 13 13 13 13 13 12 12 12 12 12 12 12 11 11 11 11 11 11 11 10 10 10 11 11 10 10 10 10 10 9 9 9 9 9 9 9
Wind_Speed
2 2 1 1 2 3 3 2 1 1 0 2 2 1 1 2 6 10 12 15 14 13 12 11 10 10 10 10 10 9 9 9 9 9 9 8 8 8 8 8 8 8 8
2 2 1 1 1 0 1 1 1 0 1 1 1 0 1 2 4 7 10 12 13 13 12 11 10 10 10 10 10 11 10 10 10 10 10 9 9 9 8 9 9 9 8
3 2 1 1 1 1 2 1 2 1 2 2 2 1 1 2 4 5 9 10 11 12 12 12 11 10 10 10 11 11 11 11 11 11 11 10 10 9 9 9 9 9 9
3 1 1 1 0 1 2 2 1 1 1 1 1 2 1 2 3 5 6 9 11 11 13 14 13 12 11 11 11 11 12 12 12 11 11 11 11 11 11 10 10 10 10
3 2 1 1 1 1 1 2 2 1 2 2 2 2 2 2 2 5 5 7 9 11 12 14 15 14 13 12 11 11 11 12 12 12 12 12 12 12 12 12 11 11 11
3 2 2 2 2 1 1 1 0 2 2 3 3 1 2 2 3 3 4 5 7 8 10 12 13 13 14 12 11 11 10 10 11 12 12 13 13 13 13 12 12 12 12
2 2 1 1 2 2 2 2 2 3 3 2 1 1 2 3 3 3 3 3 3 5 6 9 11 11 11 14 14 12 11 10 10 11 11 12 13 13 13 13 13 12 12
2 2 1 2 2 1 2 2 2 2 3 2 2 1 2 2 1 3 2 2 2 2 3 5 7 9 8 9 11 13 12 11 11 10 11 12 12 12 13 13 13 13 13
2 1 0 1 2 2 1 3 2 3 3 2 2 2 1 1 1 1 1 2 1 1 1 2 3 5 6 6 7 11 13 12 11 9 9 10 11 11 12 13 13 13 13
1 1 1 1 2 2 2 3 2 3 3 3 2 2 2 1 1 1 2 1 1 1 1 1 2 3 4 4 5 7 8 9 9 8 7 7 7 8 9 10 10 11 11
1 1 1 1 1 2 2 2 2 2 2 2 2 2 2 2 2 2 2 1 1 1 1 1 3 4 5 6 6 7 8 7 6 4 4 3 3 4 4 5 7 8 8
1 0 1 1 1 2 2 2 2 2 2 2 2 2 2 2 2 2 2 2 1 1 1 2 3 4 6 7 7 8 8 8 6 5 3 2 1 1 1 2 3 4 5
1 2 1 1 1 2 2 2 1 2 1 2 2 2 2 2 1 1 2 2 2 1 0 2 2 5 6 7 8 10 10 9 8 7 6 6 6 6 5 5 5 5 5
2 2 1 1 1 2 2 2 2 2 2 2 2 2 2 2 1 1 2 2 2 1 0 1 2 5 6 7 9 11 10 11 10 9 9 8 8 8 8 8 8 8 8
1 2 2 2 1 2 2 2 2 3 2 2 2 2 1 1 1 2 2 2 2 2 1 1 1 3 6 8 10 10 10 10 11 10 10 9 9 9 9 10 10 10 10
3 3 3 2 2 2 3 2 2 3 3 3 2 2 2 1 1 1 2 1 1 2 1 1 1 2 4 7 10 11 10 11 11 11 10 10 10 10 10 10 11 11 11
2 2 2 3 3 4 3 3 3 3 4 4 4 4 3 2 2 1 1 0 1 2 3 1 2 3 3 4 6 8 9 10 10 11 11 11 11 11 11 11 11 11 11
2 3 2 3 3 4 4 4 4 4 4 5 5 5 5 4 4 3 2 1 1 2 4 4 2 1 2 2 3 4 6 8 10 11 12 11 11 10 10 10 10 10 10
3 3 3 4 4 3 4 4 4 5 5 5 6 6 6 6 5 4 3 2 1 2 3 4 3 2 1 2 2 3 4 5 7 9 10 10 10 10 9 9 8 8 8
3 4 4 4 4 4 4 4 4 4 5 6 7 7 8 8 7 5 4 4 3 3 3 3 3 2 2 1 1 2 2 2 3 5 7 8 9 9 9 8 8 7 7
4 4 4 4 4 5 5 4 3 4 5 5 6 7 9 11 13 10 7 6 5 4 3 3 3 3 2 1 0 1 2 2 2 3 3 5 7 6 6 5 5 5 5
5 5 5 6 7 6 8 8 5 5 5 5 5 5 7 9 10 12 13 13 10 7 4 4 4 4 2 1 1 1 1 1 1 1 2 2 5 3 5 5 4 4 3
5 6 6 7 7 8 10 10 9 5 6 6 6 6 7 8 7 6 8 10 12 13 10 7 6 5 4 3 2 2 2 1 1 1 2 1 2 3 4 5 6 4 2
5 5 6 6 6 7 9 9 8 6 7 7 7 7 7 8 9 7 8 8 8 8 8 7 6 5 5 4 4 2 1 1 1 2 2 1 1 1 3 5 6 4 3
6 5 5 5 6 7 9 8 6 4 6 7 8 8 8 7 10 8 6 7 6 5 7 8 7 5 4 5 5 3 2 1 1 1 2 1 1 1 1 2 5 5 5
6 6 6 6 6 6 8 9 6 3 5 6 6 7 10 9 9 9 5 5 5 3 3 3 2 1 2 3 6 4 3 3 2 1 2 2 1 1 0 1 2 5 4
Wind_Direction
113 104 97 153 189 165 168 179 226 156 110 279 261 189 86 87 123 132 149 164 168 173 179 184 186 190 194 196 198 201 203 201 200 202 203 205 205 206 208 208 206 206 204
107 108 153 271 268 136 113 139 214 209 224 264 293 279 143 123 117 132 151 167 174 178 182 187 192 197 202 205 207 209 210 210 209 210 209 213 214 214 212 213 214 213 209
142 164 178 225 212 202 154 207 275 269 237 230 246 269 208 151 147 152 159 168 178 187 189 191 194 200 205 209 211 210 211 213 214 213 212 214 215 216 214 214 213 213 213
170 198 223 226 214 242 196 199 240 275 300 287 264 253 213 152 164 176 181 180 180 187 195 199 200 203 207 211 214 215 217 217 217 216 216 217 219 221 220 220 220 221 220
185 203 214 175 255 281 273 258 148 220 271 276 246 226 220 210 191 202 193 197 191 186 184 195 201 204 209 213 216 218 218 218 218 219 221 221 222 223 223 224 226 226 226
206 236 206 197 221 242 258 272 250 237 247 257 266 263 242 233 213 214 208 205 198 196 188 184 192 207 211 213 215 214 214 216 220 221 223 224 223 223 223 225 228 229 230
210 243 305 181 232 237 243 256 253 252 238 225 248 280 267 245 222 217 213 195 191 191 180 171 177 189 199 212 214 213 214 217 219 220 222 225 225 223 223 225 228 230 233
216 225 206 268 253 251 258 265 256 267 261 225 214 235 262 281 265 230 186 195 210 161 152 178 181 181 181 180 202 209 213 218 222 224 225 225 225 225 225 226 229 232 234
203 282 352 293 298 280 274 269 261 255 261 262 229 223 237 232 326 326 209 182 178 158 149 131 151 171 182 169 171 198 207 210 214 221 225 226 230 232 233 233 233 234 235
208 220 255 287 297 292 282 268 256 260 251 263 262 243 235 228 215 300 331 8 124 127 95 48 85 110 132 136 133 143 177 196 206 216 223 228 234 238 240 242 244 245 242
185 256 235 313 308 299 299 300 315 300 277 259 265 269 257 247 215 217 251 303 352 45 78 79 79 80 100 105 100 111 135 153 165 180 196 215 232 240 248 255 259 258 256
150 4 76 34 348 314 305 300 302 285 275 281 281 283 273 250 228 213 222 238 270 315 44 65 86 92 95 97 92 95 113 124 132 133 128 123 102 58 360 335 316 299 291
92 61 38 29 348 322 316 312 312 303 293 279 270 274 276 277 264 212 198 228 244 242 91 69 88 97 98 98 99 97 101 113 114 110 101 90 78 67 55 44 34 17 359
58 49 62 61 22 346 340 353 333 314 322 309 294 284 272 284 273 225 220 214 223 230 74 111 104 104 101 105 103 102 96 102 103 100 96 90 83 76 68 60 53 44 35
69 48 51 55 38 14 1 10 3 2 356 337 322 310 282 279 263 240 220 218 223 216 226 199 117 107 107 103 108 105 99 105 107 103 98 93 89 82 75 67 60 54 49
34 40 38 30 31 24 17 13 13 13 15 4 355 348 340 315 274 250 243 254 210 194 204 136 101 92 102 112 115 114 109 110 109 109 105 100 93 86 80 74 68 61 56
38 47 40 39 40 33 27 29 33 24 20 12 7 6 360 350 340 336 338 84 145 151 150 136 103 90 84 100 121 126 122 118 113 116 114 108 101 94 87 81 75 69 63
64 53 50 51 53 44 34 37 37 36 33 29 21 16 12 15 13 2 8 38 95 129 148 146 131 113 87 115 136 141 126 123 125 127 123 116 110 103 94 85 77 71 65
61 55 58 60 53 52 51 43 40 44 43 42 34 28 19 19 15 15 20 28 69 102 123 135 137 135 99 103 98 106 106 116 122 128 127 121 116 107 98 89 82 75 67
71 63 65 62 54 50 46 42 51 55 52 53 52 48 42 35 23 17 37 37 58 88 111 123 127 121 95 77 104 126 120 111 113 121 115 125 119 107 102 94 87 78 69
82 70 70 67 64 59 38 28 50 65 61 66 68 69 66 62 52 45 49 45 55 66 80 96 105 102 90 99 112 179 135 146 126 119 127 137 136 127 121 111 97 87 74
79 72 65 60 57 50 31 35 43 61 68 64 62 70 78 66 60 59 60 58 56 62 64 76 84 89 76 54 3 26 129 149 133 100 125 144 140 137 136 133 131 114 90
83 78 74 72 66 43 34 38 39 66 72 62 54 51 59 58 53 58 67 64 57 55 61 72 72 69 65 32 10 23 39 58 103 131 111 135 132 129 129 140 145 134 136
86 83 82 79 73 48 34 40 38 76 75 67 61 59 58 50 40 47 69 70 64 52 57 72 71 62 60 27 9 13 22 78 90 66 63 121 125 126 126 147 170 173 186
93 89 85 83 76 52 34 38 45 91 88 77 68 58 56 52 30 42 73 81 78 73 76 88 95 97 80 45 28 23 11 38 91 88 30 24 80 116 140 157 191 207 214
104 99 92 86 82 66 40 34 30 86 99 94 85 73 57 47 36 35 53 68 68 50 57 80 93 78 70 57 49 37 21 25 38 68 22 5 359 43 79 151 178 191 208
Height
1564 1565 1566 1566 1567 1568 1568 1569 1569 1570 1570 1571 1572 1572 1573 1573 1573 1572 1572 1573 1573 1574 1575 1575 1575 1576 1577 1577 1578 1579 1580 1581 1582 1582 1583 1584 1585 1586 1586 1587 1588 1589 1589
1565 1565 1566 1566 1567 1568 1569 1569 1569 1570 1570 1571 1571 1572 1572 1572 1572 1572 1572 1573 1573 1573 1574 1574 1575 1575 1576 1576 1577 1578 1578 1579 1580 1581 1582 1583 1583 1584 1585 1585 1586 1587 1588
1565 1565 1566 1566 1567 1568 1568 1569 1569 1569 1569 1570 1570 1571 1571 1571 1571 1571 1572 1572 1572 1572 1573 1573 1574 1574 1575 1575 1576 1576 1577 1577 1578 1579 1580 1581 1582 1582 1583 1584 1584 1585 1586
1564 1565 1565 1566 1567 1567 1567 1568 1568 1568 1569 1569 1569 1569 1570 1570 1570 1570 1571 1571 1571 1571 1571 1572 1572 1573 1573 1574 1574 1574 1575 1576 1576 1577 1578 1578 1579 1580 1581 1581 1582 1583 1584
1564 1564 1565 1565 1566 1566 1566 1567 1567 1567 1567 1568 1568 1568 1568 1568 1568 1569 1569 1570 1570 1570 1570 1570 1571 1571 1571 1572 1572 1572 1573 1573 1574 1575 1575 1576 1577 1577 1578 1579 1580 1580 1581
1564 1564 1564 1565 1565 1565 1565 1566 1566 1566 1566 1566 1566 1566 1566 1566 1567 1567 1567 1568 1568 1568 1568 1568 1568 1569 1569 1569 1569 1570 1570 1571 1571 1572 1572 1573 1574 1574 1575 1576 1577 1578 1578
1563 1563 1563 1563 1563 1564 1564 1564 1564 1564 1564 1565 1565 1565 1564 1565 1565 1565 1565 1566 1566 1566 1566 1566 1566 1566 1566 1567 1567 1567 1568 1568 1569 1570 1570 1570 1571 1571 1572 1573 1574 1574 1575
1562 1562 1562 1562 1562 1563 1563 1563 1563 1563 1563 1563 1563 1563 1563 1564 1563 1563 1563 1563 1564 1564 1564 1564 1564 1564 1564 1564 1564 1565 1565 1566 1567 1567 1568 1568 1568 1569 1569 1570 1570 1571 1571
1561 1561 1561 1561 1561 1561 1561 1561 1560 1561 1561 1561 1562 1562 1562 1561 1562 1562 1561 1561 1561 1562 1562 1563 1563 1562 1561 1562 1562 1562 1563 1564 1564 1564 1565 1565 1565 1566 1566 1567 1567 1567 1568
1559 1559 1559 1559 1558 1558 1558 1558 1558 1558 1558 1558 1559 1559 1560 1559 1560 1559 1560 1560 1560 1559 1560 1561 1561 1560 1559 1559 1559 1559 1560 1561 1561 1562 1562 1562 1563 1563 1563 1563 1563 1563 1563
1558 1558 1557 1557 1556 1556 1556 1556 1556 1555 1555 1555 1556 1556 1556 1557 1557 1557 1557 1558 1559 1558 1558 1558 1558 1558 1558 1557 1557 1557 1558 1558 1559 1559 1560 1560 1560 1560 1560 1560 1559 1559 1559
1556 1556 1556 1555 1555 1554 1554 1553 1553 1553 1552 1553 1553 1553 1554 1554 1554 1554 1555 1555 1556 1556 1556 1556 1556 1556 1556 1556 1556 1556 1556 1556 1557 1557 1557 1558 1557 1557 1557 1556 1556 1556 1555
1555 1554 1554 1553 1553 1553 1552 1551 1551 1550 1550 1550 1550 1550 1550 1551 1551 1552 1552 1552 1552 1553 1554 1554 1554 1554 1554 1554 1554 1554 1555 1555 1555 1555 1555 1555 1555 1554 1554 1553 1553 1552 1552
1553 1553 1553 1552 1551 1551 1550 1550 1549 1548 1548 1548 1547 1547 1548 1548 1548 1549 1549 1550 1550 1551 1552 1553 1553 1553 1553 1552 1552 1553 1553 1553 1553 1553 1553 1553 1552 1552 1552 1551 1550 1549 1548
1551 1551 1551 1551 1550 1549 1549 1548 1547 1547 1546 1546 1546 1545 1545 1545 1546 1546 1546 1547 1548 1548 1550 1551 1552 1552 1552 1551 1551 1551 1551 1552 1552 1552 1552 1551 1551 1550 1550 1549 1548 1547 1546
1550 1550 1550 1549 1549 1548 1548 1547 1546 1546 1545 1545 1545 1544 1543 1544 1544 1544 1544 1544 1545 1546 1548 1550 1550 1551 1551 1551 1550 1550 1551 1551 1551 1551 1551 1550 1550 1549 1548 1547 1546 1545 1543
1548 1548 1548 1548 1548 1547 1547 1546 1546 1545 1544 1544 1543 1543 1543 1542 1542 1542 1542 1542 1543 1544 1545 1547 1548 1550 1550 1550 1549 1550 1550 1550 1550 1550 1550 1549 1549 1548 1547 1546 1545 1543 1542
1547 1547 1548 1547 1547 1547 1546 1546 1545 1544 1544 1543 1543 1542 1542 1541 1540 1540 1541 1541 1542 1543 1544 1545 1547 1548 1549 1549 1549 1549 1550 1550 1549 1549 1549 1549 1548 1547 1546 1545 1544 1542 1541
1547 1547 1547 1547 1546 1546 1546 1545 1544 1544 1543 1543 1542 1541 1541 1541 1540 1540 1540 1540 1541 1542 1543 1544 1545 1547 1548 1548 1549 1549 1549 1549 1549 1549 1548 1548 1547 1547 1546 1545 1543 1542 1540
1547 1547 1546 1546 1546 1546 1545 1545 1545 1544 1544 1543 1542 1541 1541 1540 1540 1540 1539 1539 1540 1541 1542 1543 1544 1545 1546 1547 1548 1547 1548 1548 1549 1549 1548 1548 1547 1547 1546 1545 1543 1542 1540
1547 1546 1546 1546 1546 1546 1545 1545 1545 1545 1544 1544 1543 1542 1542 1541 1541 1540 1540 1540 1540 1541 1542 1542 1543 1544 1545 1546 1547 1547 1547 1548 1548 1548 1547 1547 1547 1546 1545 1544 1543 1542 1540
1547 1547 1546 1546 1546 1546 1546 1546 1546 1545 1545 1545 1544 1544 1543 1542 1542 1541 1541 1541 1542 1542 1542 1542 1543 1544 1545 1546 1546 1547 1547 1547 1547 1548 1547 1547 1546 1545 1544 1544 1543 1541 1540
1547 1547 1546 1546 1546 1546 1546 1546 1546 1546 1546 1545 1545 1545 1544 1544 1543 1543 1543 1542 1542 1543 1544 1544 1543 1544 1544 1545 1545 1546 1546 1546 1546 1547 1546 1546 1546 1545 1544 1543 1542 1541 1540
1547 1547 1547 1547 1547 1547 1547 1547 1547 1547 1546 1546 1546 1546 1546 1545 1545 1545 1544 1544 1544 1544 1545 1544 1545 1545 1545 1545 1546 1546 1546 1546 1546 1546 1546 1545 1545 1544 1543 1543 1542 1541 1539
1547 1547 1547 1547 1547 1548 1548 1548 1548 1548 1548 1548 1548 1547 1547 1547 1547 1547 1546 1545 1545 1546 1546 1546 1546 1546 1546 1546 1546 1545 1545 1545 1545 1545 1545 1545 1544 1543 1542 1542 1541 1539 1538
1548 1548 1548 1548 1549 1549 1549 1550 1550 1550 1550 1549 1549 1549 1549 1548 1548 1548 1548 1547 1547 1548 1548 1547 1547 1547 1547 1546 1546 1545 1545 1544 1544 1544 1544 1544 1543 1542 1541 1540 1540 1539 1537